TimeHST,TemperatureF,Dew PointF,Humidity,Sea Level PressureIn,VisibilityMPH,Wind Direction,Wind SpeedMPH,Gust SpeedMPH,PrecipitationIn,Events,Conditions,WindDirDegrees,DateUTC
12:53 AM,75.0,66.0,73,30.02,10.0,North,-9999.0,-,N/A,,Clear,0,2013-05-02 10:53:00
1:53 AM,75.0,64.9,71,30.02,10.0,North,-9999.0,-,N/A,,Overcast,0,2013-05-02 11:53:00
2:53 AM,73.9,64.9,73,30.01,10.0,North,-9999.0,-,N/A,,Clear,0,2013-05-02 12:53:00
3:53 AM,73.9,64.9,73,30.00,10.0,East,5.8,-,N/A,,Scattered Clouds,90,2013-05-02 13:53:00
4:53 AM,73.9,64.9,73,30.01,10.0,East,5.8,-,N/A,,Mostly Cloudy,90,2013-05-02 14:53:00
5:53 AM,75.0,64.9,71,30.02,10.0,East,4.6,-,N/A,,Overcast,90,2013-05-02 15:53:00
6:53 AM,75.9,66.0,71,30.04,10.0,East,5.8,-,N/A,,Overcast,90,2013-05-02 16:53:00
7:05 AM,77.0,66.2,69,30.04,10.0,ENE,4.6,-,N/A,,Overcast,70,2013-05-02 17:05:00
7:53 AM,78.1,66.0,66,30.05,10.0,ENE,4.6,-,N/A,,Scattered Clouds,70,2013-05-02 17:53:00
8:53 AM,79.0,66.9,66,30.06,10.0,SSW,3.5,-,N/A,,Scattered Clouds,200,2013-05-02 18:53:00
8:55 AM,78.8,66.2,65,30.05,10.0,West,6.9,-,N/A,,Scattered Clouds,260,2013-05-02 18:55:00
9:53 AM,80.1,68.0,67,30.06,10.0,West,6.9,-,N/A,,Overcast,260,2013-05-02 19:53:00
9:57 AM,80.6,66.2,61,30.05,10.0,SW,12.7,-,N/A,,Mostly Cloudy,220,2013-05-02 19:57:00
10:53 AM,82.0,68.0,62,30.05,10.0,WSW,16.1,-,N/A,,Clear,240,2013-05-02 20:53:00
11:53 AM,82.9,68.0,60,30.05,10.0,WSW,16.1,-,N/A,,Clear,240,2013-05-02 21:53:00
12:53 PM,82.9,68.0,60,30.04,10.0,SW,11.5,-,N/A,,Mostly Cloudy,230,2013-05-02 22:53:00
1:53 PM,82.9,68.0,60,30.03,10.0,WSW,15.0,-,N/A,,Partly Cloudy,240,2013-05-02 23:53:00
2:20 PM,82.4,68.0,62,30.02,10.0,SW,11.5,-,N/A,,Clear,230,2013-05-03 00:20:00
2:53 PM,82.9,66.9,58,30.02,10.0,SW,11.5,-,N/A,,Clear,230,2013-05-03 00:53:00
3:53 PM,82.9,66.9,58,30.02,-9999.0,North,-9999.0,-,N/A,,Unknown,0,2013-05-03 01:53:00
4:53 PM,81.0,68.0,65,30.02,10.0,North,-9999.0,-,N/A,,Mostly Cloudy,0,2013-05-03 02:53:00
5:53 PM,80.1,68.0,67,30.02,10.0,North,-9999.0,-,N/A,,Mostly Cloudy,0,2013-05-03 03:53:00
6:53 PM,79.0,68.0,69,30.04,10.0,West,11.5,-,N/A,,Overcast,270,2013-05-03 04:53:00
7:53 PM,78.1,68.0,71,30.05,10.0,WSW,11.5,-,N/A,,Overcast,250,2013-05-03 05:53:00
8:53 PM,78.1,68.0,71,30.07,10.0,WSW,11.5,-,N/A,,Mostly Cloudy,250,2013-05-03 06:53:00
9:53 PM,78.1,68.0,71,30.07,10.0,West,9.2,-,N/A,,Overcast,270,2013-05-03 07:53:00
10:00 PM,78.8,68.0,69,30.07,10.0,North,-9999.0,-,N/A,,Overcast,0,2013-05-03 08:00:00
10:26 PM,78.8,68.0,69,30.07,10.0,North,-9999.0,-,N/A,,Overcast,0,2013-05-03 08:26:00
10:53 PM,77.0,68.0,74,30.07,10.0,North,-9999.0,-,N/A,,Scattered Clouds,0,2013-05-03 08:53:00
11:53 PM,77.0,68.0,74,30.06,10.0,North,-9999.0,-,N/A,,Scattered Clouds,0,2013-05-03 09:53:00